Flag for Equatorial Guinea Weather past 2 weeks in Mongomo, Equatorial Guinea

Now
70 °F

Thunderstorms. Passing clouds.


Feels Like: 70 °F
Forecast: 68 / 78 °F
Wind: 2 mph from North

Location: Yaounde Airport

Current Time: Sep 18, 2014 at 7:14:53 AM

Latest Report: Sep 18, 2014 at 6:00 AM


Visibility: 5 mi

Pressure: 30.01 "Hg

Humidity: 94%

Dew point: 68 °F

Location of MongomoLocation

Historic Weather in Mongomo — Graph

°F

Mongomo temperature yesterday

Maximum temperature yesterday: 81 °F (at 1:00 PM)
Minimum temperature yesterday: 66 °F (at 12:00 AM)
Average temperature yesterday: 72 °F

Past Weeks' High & Low Weather Summary

 TemperatureHumidityPressure
High86 °F (Sep 13, 3:00 PM)100% (Sep 5, 3:00 AM)30.12 "Hg (Sep 5, 3:00 AM)
Low66 °F (Sep 7, 6:00 AM)55% (Sep 7, 1:00 PM)29.89 "Hg (Sep 10, 4:00 PM)
Average73 °F84%30.01 "Hg
* Reported Sep 3 6:00 AM — Sep 18 6:00 AM, Mongomo, Weather by CustomWeather, © 2014

Note: Actual official high and low records may vary slightly from our data, if they occured in-between our weather recording intervals... More about our weather records

Advertising

Mongomo weather history for previous 24 hours

 ConditionsComfort  
Time TempWeatherWind HumidityBarometerVisibility
6:00 AM
Sep 18
70 °FThunderstorms. Passing clouds.2 mph94%30.01 "Hg5 mi
5:00 AM70 °FThunderstorms. Passing clouds.3 mph94%30.01 "Hg5 mi
4:00 AM70 °FThunderstorms. Passing clouds.1 mph94%30.01 "Hg5 mi
3:00 AM70 °FThunderstorms. Passing clouds.1 mph94%30.01 "Hg5 mi
2:00 AM72 °FPassing clouds.3 mph88%30.01 "Hg5 mi
1:00 AM70 °FPartly cloudy.3 mph94%30.01 "Hg5 mi
12:00 AM70 °FPartly cloudy.2 mph94%30.01 "Hg5 mi
10:00 PM
Sep 17
72 °FPassing clouds.1 mph88%30.04 "Hg4 mi
9:00 PM72 °FPassing clouds.3 mph88%30.01 "Hg5 mi
8:00 PM72 °FPassing clouds.2 mph88%30.01 "HgN/A
7:00 PM72 °FThunderstorms. Passing clouds.2 mph88%29.98 "HgN/A
6:00 PM72 °FThunderstorms. Scattered clouds.2 mph88%29.95 "HgN/A
5:00 PM72 °FThunderstorms. Scattered clouds.No wind88%29.92 "HgN/A
4:00 PM72 °FThunderstorms. Partly sunny.2 mph88%29.92 "HgN/A
3:00 PM77 °FThunderstorms. Partly sunny.13 mph74%29.95 "HgN/A
1:00 PM81 °FPartly sunny.6 mph66%30.01 "HgN/A
11:00 AM79 °FPartly sunny.6 mph70%30.04 "HgN/A
10:00 AM77 °FPartly sunny.3 mph74%30.07 "HgN/A
9:00 AM73 °FPartly sunny.5 mph83%30.07 "HgN/A
8:00 AM72 °FPartly sunny.3 mph88%30.07 "Hg4 mi
7:00 AM68 °FPartly sunny.1 mph100%30.04 "Hg4 mi
Weather by CustomWeather, © 2014

See weather overviewHow to use our weather pages